Time,TemperatureF,DewpointF,PressureIn,WindDirection,WindDirectionDegrees,WindSpeedMPH,WindSpeedGustMPH,Humidity,HourlyPrecipIn,Conditions,Clouds,dailyrainin,SoftwareType,DateUTC
2013-11-26 00:00:00,33.1,-0.7,29.20,SW,225,0.0,0.0,23,0.00,,---,0.00,VWS V13.01,2013-11-26 05:00:00,
2013-11-26 00:01:00,33.1,-0.7,29.20,SW,225,0.0,0.0,23,0.00,,---,0.00,VWS V13.01,2013-11-26 05:01:00,
2013-11-26 00:12:00,33.1,-0.7,29.17,SW,225,0.0,0.0,23,0.00,,---,0.00,VWS V13.01,2013-11-26 05:12:00,
2013-11-26 00:13:00,33.1,-0.7,29.17,SW,225,0.0,0.0,23,0.00,,---,0.00,VWS V13.01,2013-11-26 05:13:00,
2013-11-26 00:15:00,33.1,-0.7,29.17,SW,225,0.0,0.0,23,0.00,,---,0.00,VWS V13.01,2013-11-26 05:15:00,
2013-11-26 00:18:00,33.1,-0.7,29.17,SW,225,0.0,0.0,23,0.00,,---,0.00,VWS V13.01,2013-11-26 05:18:00,
2013-11-26 00:23:00,32.9,-0.8,29.17,SW,225,0.0,0.0,23,0.00,,---,0.00,VWS V13.01,2013-11-26 05:23:00,
2013-11-26 00:28:00,32.7,-1.0,29.17,SW,225,0.0,0.0,23,0.00,,---,0.00,VWS V13.01,2013-11-26 05:28:00,
2013-11-26 00:33:00,32.7,-1.0,29.17,SW,225,0.0,0.0,23,0.00,,---,0.00,VWS V13.01,2013-11-26 05:33:00,
2013-11-26 00:38:00,32.5,-1.1,29.17,SW,225,0.0,0.0,23,0.00,,---,0.00,VWS V13.01,2013-11-26 05:38:00,
2013-11-26 00:43:00,32.5,-1.1,29.17,SW,225,0.0,0.0,23,0.00,,---,0.00,VWS V13.01,2013-11-26 05:43:00,
2013-11-26 00:48:00,32.4,-1.3,29.17,SW,225,0.0,0.0,23,0.00,,---,0.00,VWS V13.01,2013-11-26 05:48:00,
2013-11-26 00:53:00,32.4,-1.3,29.17,SW,225,0.0,0.0,23,0.00,,---,0.00,VWS V13.01,2013-11-26 05:53:00,
2013-11-26 00:58:00,32.4,-1.3,29.17,SW,225,0.0,0.0,23,0.00,,---,0.00,VWS V13.01,2013-11-26 05:58:00,
2013-11-26 01:03:00,32.5,-1.1,29.17,SW,225,0.0,0.0,23,0.00,,---,0.00,VWS V13.01,2013-11-26 06:03:00,
2013-11-26 01:08:00,32.5,-1.1,29.17,SW,225,0.0,0.0,23,0.00,,---,0.00,VWS V13.01,2013-11-26 06:08:00,
2013-11-26 01:13:00,32.7,-1.0,29.17,South,180,0.0,0.0,23,0.00,,---,0.00,VWS V13.01,2013-11-26 06:13:00,
2013-11-26 01:18:00,32.5,-1.1,29.17,South,180,0.0,0.0,23,0.00,,---,0.00,VWS V13.01,2013-11-26 06:18:00,
2013-11-26 01:24:00,32.4,-1.3,29.17,South,180,0.0,0.0,23,0.00,,---,0.00,VWS V13.01,2013-11-26 06:24:00,
2013-11-26 01:29:00,32.2,-1.4,29.17,South,180,0.0,0.0,23,0.00,,---,0.00,VWS V13.01,2013-11-26 06:29:00,
2013-11-26 01:34:00,32.0,-1.6,29.14,South,180,0.0,0.0,23,0.00,,---,0.00,VWS V13.01,2013-11-26 06:34:00,
2013-11-26 01:39:00,32.0,-1.6,29.14,South,180,0.0,0.0,23,0.00,,---,0.00,VWS V13.01,2013-11-26 06:39:00,
2013-11-26 01:44:00,32.0,-1.6,29.14,South,180,0.0,0.0,23,0.00,,---,0.00,VWS V13.01,2013-11-26 06:44:00,
2013-11-26 01:49:00,32.0,-1.6,29.14,South,180,0.0,0.0,23,0.00,,---,0.00,VWS V13.01,2013-11-26 06:49:00,
2013-11-26 01:54:00,32.0,-1.6,29.14,South,180,0.0,0.0,23,0.00,,---,0.00,VWS V13.01,2013-11-26 06:54:00,
2013-11-26 01:59:00,32.0,-1.6,29.14,South,180,0.0,0.0,23,0.00,,---,0.00,VWS V13.01,2013-11-26 06:59:00,
2013-11-26 02:04:00,32.0,-1.6,29.12,South,180,0.0,0.0,23,0.00,,---,0.00,VWS V13.01,2013-11-26 07:04:00,
2013-11-26 02:09:00,32.2,-1.4,29.12,South,180,0.0,0.0,23,0.00,,---,0.00,VWS V13.01,2013-11-26 07:09:00,
2013-11-26 02:14:00,32.2,-1.4,29.12,South,180,0.0,0.0,23,0.00,,---,0.00,VWS V13.01,2013-11-26 07:14:00,
2013-11-26 02:19:00,32.9,-0.8,29.12,South,180,0.0,0.0,23,0.00,,---,0.00,VWS V13.01,2013-11-26 07:19:00,
2013-11-26 02:24:00,33.1,-0.7,29.12,South,180,0.0,0.0,23,0.00,,---,0.00,VWS V13.01,2013-11-26 07:24:00,
2013-11-26 02:29:00,33.6,-0.2,29.12,South,180,0.0,0.0,23,0.00,,---,0.00,VWS V13.01,2013-11-26 07:29:00,
2013-11-26 02:34:00,33.6,-0.2,29.12,South,180,0.0,0.0,23,0.00,,---,0.00,VWS V13.01,2013-11-26 07:34:00,
2013-11-26 02:39:00,33.6,-0.2,29.12,South,180,0.0,0.0,23,0.00,,---,0.00,VWS V13.01,2013-11-26 07:39:00,
2013-11-26 02:45:00,33.4,-0.4,29.12,South,180,0.0,0.0,23,0.00,,---,0.00,VWS V13.01,2013-11-26 07:45:00,
2013-11-26 02:50:00,33.3,-0.5,29.14,South,180,0.0,0.0,23,0.00,,---,0.00,VWS V13.01,2013-11-26 07:50:00,
2013-11-26 02:55:00,33.1,-0.7,29.14,South,180,0.0,0.0,23,0.00,,---,0.00,VWS V13.01,2013-11-26 07:55:00,
2013-11-26 03:00:00,32.7,-1.0,29.14,South,180,0.0,0.0,23,0.00,,---,0.00,VWS V13.01,2013-11-26 08:00:00,
2013-11-26 03:05:00,32.4,-1.3,29.12,South,180,0.0,0.0,23,0.00,,---,0.00,VWS V13.01,2013-11-26 08:05:00,
2013-11-26 03:10:00,32.4,-1.3,29.12,South,180,0.0,0.0,23,0.00,,---,0.00,VWS V13.01,2013-11-26 08:10:00,
2013-11-26 03:15:00,32.4,-1.3,29.12,South,180,0.0,0.0,23,0.00,,---,0.00,VWS V13.01,2013-11-26 08:15:00,
2013-11-26 03:20:00,32.4,-1.3,29.12,South,180,0.0,0.0,23,0.00,,---,0.00,VWS V13.01,2013-11-26 08:20:00,
2013-11-26 03:25:00,32.2,-1.4,29.12,South,180,0.0,0.0,23,0.00,,---,0.00,VWS V13.01,2013-11-26 08:25:00,
2013-11-26 03:30:00,32.4,-1.3,29.12,South,180,0.0,0.0,23,0.00,,---,0.00,VWS V13.01,2013-11-26 08:30:00,
2013-11-26 03:35:00,32.2,-1.4,29.14,South,180,0.0,0.0,23,0.00,,---,0.00,VWS V13.01,2013-11-26 08:35:00,
2013-11-26 03:40:00,32.2,-1.4,29.14,South,180,0.0,0.0,23,0.00,,---,0.00,VWS V13.01,2013-11-26 08:40:00,
2013-11-26 03:45:00,32.2,-1.4,29.14,South,180,0.0,0.0,23,0.00,,---,0.00,VWS V13.01,2013-11-26 08:45:00,
2013-11-26 03:50:00,32.2,-1.4,29.12,South,180,0.0,0.0,23,0.00,,---,0.00,VWS V13.01,2013-11-26 08:50:00,
2013-11-26 03:56:00,32.0,-1.6,29.12,South,180,0.0,0.0,23,0.00,,---,0.00,VWS V13.01,2013-11-26 08:56:00,
2013-11-26 04:01:00,32.0,-1.6,29.12,South,180,0.0,0.0,23,0.00,,---,0.00,VWS V13.01,2013-11-26 09:01:00,
2013-11-26 04:06:00,32.2,-1.4,29.12,South,180,0.0,0.0,23,0.00,,---,0.00,VWS V13.01,2013-11-26 09:06:00,
2013-11-26 04:11:00,32.2,-1.4,29.12,South,180,0.0,0.0,23,0.00,,---,0.00,VWS V13.01,2013-11-26 09:11:00,
2013-11-26 04:16:00,32.2,-1.4,29.12,South,180,0.0,0.0,23,0.00,,---,0.00,VWS V13.01,2013-11-26 09:16:00,
2013-11-26 04:21:00,32.4,-1.3,29.12,South,180,0.0,0.0,23,0.00,,---,0.00,VWS V13.01,2013-11-26 09:21:00,
2013-11-26 04:26:00,32.4,-1.3,29.12,South,180,0.0,0.0,23,0.00,,---,0.00,VWS V13.01,2013-11-26 09:26:00,
2013-11-26 04:31:00,32.4,-1.3,29.12,South,180,0.0,0.0,23,0.00,,---,0.00,VWS V13.01,2013-11-26 09:31:00,
2013-11-26 04:36:00,32.4,0.5,29.12,South,180,0.0,0.0,25,0.00,,---,0.00,VWS V13.01,2013-11-26 09:36:00,
2013-11-26 04:41:00,32.4,0.5,29.12,South,180,0.0,0.0,25,0.00,,---,0.00,VWS V13.01,2013-11-26 09:41:00,
2013-11-26 04:46:00,32.2,0.3,29.12,South,180,0.0,0.0,25,0.00,,---,0.00,VWS V13.01,2013-11-26 09:46:00,
2013-11-26 04:51:00,32.2,-1.4,29.12,South,180,0.0,0.0,23,0.00,,---,0.00,VWS V13.01,2013-11-26 09:51:00,
2013-11-26 04:56:00,32.0,-1.6,29.12,South,180,0.0,0.0,23,0.00,,---,0.00,VWS V13.01,2013-11-26 09:56:00,
2013-11-26 05:01:00,32.2,-1.4,29.12,South,180,0.0,0.0,23,0.00,,---,0.00,VWS V13.01,2013-11-26 10:01:00,
2013-11-26 05:07:00,32.2,-1.4,29.12,South,180,0.0,0.0,23,0.00,,---,0.00,VWS V13.01,2013-11-26 10:07:00,
2013-11-26 05:12:00,32.2,-1.4,29.12,South,180,0.0,0.0,23,0.00,,---,0.00,VWS V13.01,2013-11-26 10:12:00,
2013-11-26 05:17:00,32.2,0.3,29.12,South,180,0.0,0.0,25,0.00,,---,0.00,VWS V13.01,2013-11-26 10:17:00,
2013-11-26 05:22:00,32.2,0.3,29.12,South,180,0.0,0.0,25,0.00,,---,0.00,VWS V13.01,2013-11-26 10:22:00,
2013-11-26 05:27:00,32.4,0.5,29.12,South,180,0.0,0.0,25,0.00,,---,0.00,VWS V13.01,2013-11-26 10:27:00,
2013-11-26 05:32:00,32.4,0.5,29.12,South,180,0.0,0.0,25,0.00,,---,0.00,VWS V13.01,2013-11-26 10:32:00,
2013-11-26 05:37:00,32.2,0.3,29.12,South,180,0.0,0.0,25,0.00,,---,0.00,VWS V13.01,2013-11-26 10:37:00,
2013-11-26 05:43:00,32.2,0.3,29.12,South,180,0.0,0.0,25,0.00,,---,0.00,VWS V13.01,2013-11-26 10:43:00,
2013-11-26 05:48:00,32.2,0.3,29.12,South,180,0.0,0.0,25,0.00,,---,0.00,VWS V13.01,2013-11-26 10:48:00,
2013-11-26 05:53:00,32.2,0.3,29.12,South,180,0.0,0.0,25,0.00,,---,0.00,VWS V13.01,2013-11-26 10:53:00,
2013-11-26 05:58:00,32.0,0.2,29.12,South,180,0.0,0.0,25,0.00,,---,0.00,VWS V13.01,2013-11-26 10:58:00,
2013-11-26 06:03:00,32.0,0.2,29.12,South,180,0.0,0.0,25,0.00,,---,0.00,VWS V13.01,2013-11-26 11:03:00,
2013-11-26 06:08:00,32.0,0.2,29.12,South,180,0.0,0.0,25,0.00,,---,0.00,VWS V13.01,2013-11-26 11:08:00,
2013-11-26 06:13:00,31.8,0.0,29.12,South,180,0.0,0.0,25,0.00,,---,0.00,VWS V13.01,2013-11-26 11:13:00,
2013-11-26 06:18:00,31.8,0.0,29.09,South,180,0.0,0.0,25,0.00,,---,0.00,VWS V13.01,2013-11-26 11:18:00,
2013-11-26 06:23:00,31.8,0.0,29.09,South,180,0.0,0.0,25,0.00,,---,0.00,VWS V13.01,2013-11-26 11:23:00,
2013-11-26 06:28:00,31.6,-0.1,29.09,South,180,0.0,0.0,25,0.00,,---,0.00,VWS V13.01,2013-11-26 11:28:00,
2013-11-26 06:33:00,31.6,-0.1,29.12,South,180,0.0,0.0,25,0.00,,---,0.00,VWS V13.01,2013-11-26 11:33:00,
2013-11-26 06:38:00,31.6,-0.1,29.12,South,180,0.0,0.0,25,0.00,,---,0.00,VWS V13.01,2013-11-26 11:38:00,
2013-11-26 06:43:00,31.6,-0.1,29.12,South,180,0.0,0.0,25,0.00,,---,0.00,VWS V13.01,2013-11-26 11:43:00,
2013-11-26 06:48:00,31.6,-0.1,29.09,South,180,0.0,0.0,25,0.00,,---,0.00,VWS V13.01,2013-11-26 11:48:00,
2013-11-26 06:53:00,31.5,-0.3,29.09,South,180,0.0,0.0,25,0.00,,---,0.00,VWS V13.01,2013-11-26 11:53:00,
2013-11-26 06:58:00,31.5,-0.3,29.09,South,180,0.0,0.0,25,0.00,,---,0.00,VWS V13.01,2013-11-26 11:58:00,
2013-11-26 07:04:00,31.5,-0.3,29.09,South,180,0.0,0.0,25,0.00,,---,0.00,VWS V13.01,2013-11-26 12:04:00,
2013-11-26 07:09:00,31.5,-0.3,29.09,South,180,0.0,0.0,25,0.00,,---,0.00,VWS V13.01,2013-11-26 12:09:00,
2013-11-26 07:14:00,31.5,-0.3,29.09,South,180,0.0,0.0,25,0.00,,---,0.00,VWS V13.01,2013-11-26 12:14:00,
2013-11-26 07:19:00,31.5,-0.3,29.09,South,180,0.0,0.0,25,0.00,,---,0.00,VWS V13.01,2013-11-26 12:19:00,
2013-11-26 07:24:00,31.5,-0.3,29.09,South,180,0.0,0.0,25,0.00,,---,0.00,VWS V13.01,2013-11-26 12:24:00,
2013-11-26 07:29:00,31.5,-0.3,29.09,South,180,0.0,0.0,25,0.00,,---,0.00,VWS V13.01,2013-11-26 12:29:00,
2013-11-26 07:34:00,31.5,-0.3,29.12,South,180,0.0,0.0,25,0.00,,---,0.00,VWS V13.01,2013-11-26 12:34:00,
2013-11-26 07:39:00,31.5,-0.3,29.12,South,180,0.0,0.0,25,0.00,,---,0.00,VWS V13.01,2013-11-26 12:39:00,
2013-11-26 07:44:00,31.5,-0.3,29.12,South,180,0.0,0.0,25,0.00,,---,0.00,VWS V13.01,2013-11-26 12:44:00,
2013-11-26 07:49:00,31.5,-0.3,29.12,South,180,0.0,0.0,25,0.00,,---,0.00,VWS V13.01,2013-11-26 12:49:00,
2013-11-26 07:54:00,31.6,-0.1,29.12,South,180,0.0,0.0,25,0.00,,---,0.00,VWS V13.01,2013-11-26 12:54:00,
2013-11-26 07:59:00,31.6,-0.1,29.12,South,180,0.0,0.0,25,0.00,,---,0.00,VWS V13.01,2013-11-26 12:59:00,
2013-11-26 08:04:00,31.6,-0.1,29.12,South,180,0.0,0.0,25,0.00,,---,0.00,VWS V13.01,2013-11-26 13:04:00,
2013-11-26 08:09:00,31.6,-0.1,29.12,South,180,0.0,0.0,25,0.00,,---,0.00,VWS V13.01,2013-11-26 13:09:00,
2013-11-26 08:14:00,31.8,0.0,29.12,South,180,0.0,0.0,25,0.00,,---,0.00,VWS V13.01,2013-11-26 13:14:00,
2013-11-26 08:19:00,32.0,0.2,29.09,South,180,0.0,0.0,25,0.00,,---,0.00,VWS V13.01,2013-11-26 13:19:00,
2013-11-26 08:24:00,32.0,0.2,29.09,South,180,0.0,0.0,25,0.00,,---,0.00,VWS V13.01,2013-11-26 13:24:00,
2013-11-26 08:30:00,32.0,2.6,29.09,South,180,0.0,0.0,28,0.00,,---,0.00,VWS V13.01,2013-11-26 13:30:00,
2013-11-26 08:35:00,31.8,2.4,29.09,South,180,0.0,0.0,28,0.00,,---,0.00,VWS V13.01,2013-11-26 13:35:00,
2013-11-26 08:40:00,31.6,3.8,29.09,South,180,0.0,0.0,30,0.00,,---,0.00,VWS V13.01,2013-11-26 13:40:00,
2013-11-26 08:45:00,31.6,3.8,29.09,South,180,0.0,0.0,30,0.00,,---,0.00,VWS V13.01,2013-11-26 13:45:00,
2013-11-26 08:50:00,31.5,5.7,29.09,South,180,0.0,0.0,33,0.00,,---,0.00,VWS V13.01,2013-11-26 13:50:00,
2013-11-26 08:55:00,31.3,7.4,29.09,South,180,0.0,0.0,36,0.00,,---,0.00,VWS V13.01,2013-11-26 13:55:00,
2013-11-26 09:00:00,31.3,9.2,29.09,South,180,0.0,0.0,39,0.00,,---,0.00,VWS V13.01,2013-11-26 14:00:00,
2013-11-26 09:05:00,31.1,9.6,29.09,South,180,0.0,0.0,40,0.00,,---,0.00,VWS V13.01,2013-11-26 14:05:00,
2013-11-26 09:10:00,31.1,10.2,29.09,South,180,0.0,0.0,41,0.00,,---,0.00,VWS V13.01,2013-11-26 14:10:00,
2013-11-26 09:15:00,31.1,11.2,29.09,South,180,0.0,0.0,43,0.00,,---,0.00,VWS V13.01,2013-11-26 14:15:00,
2013-11-26 09:20:00,31.1,11.2,29.09,South,180,0.0,0.0,43,0.00,,---,0.00,VWS V13.01,2013-11-26 14:20:00,
2013-11-26 09:25:00,30.9,13.1,29.09,South,180,0.0,0.0,47,0.00,,---,0.00,VWS V13.01,2013-11-26 14:25:00,
2013-11-26 09:30:00,30.9,13.1,29.09,South,180,0.0,0.0,47,0.00,,---,0.00,VWS V13.01,2013-11-26 14:30:00,
2013-11-26 09:35:00,30.9,14.5,29.09,South,180,0.0,0.0,50,0.00,,---,0.00,VWS V13.01,2013-11-26 14:35:00,
2013-11-26 09:40:00,30.9,14.9,29.09,South,180,0.0,0.0,51,0.00,,---,0.00,VWS V13.01,2013-11-26 14:40:00,
2013-11-26 09:45:00,31.1,15.5,29.09,South,180,0.0,0.0,52,0.00,,---,0.00,VWS V13.01,2013-11-26 14:45:00,
2013-11-26 09:51:00,31.1,16.4,29.09,South,180,0.0,0.0,54,0.00,,---,0.00,VWS V13.01,2013-11-26 14:51:00,
2013-11-26 09:56:00,31.3,17.0,29.09,South,180,0.0,0.0,55,0.04,,---,0.04,VWS V13.01,2013-11-26 14:56:00,
2013-11-26 10:01:00,31.3,18.2,29.09,South,180,0.0,0.0,58,0.04,,---,0.04,VWS V13.01,2013-11-26 15:01:00,
2013-11-26 10:06:00,31.3,19.0,29.09,South,180,0.0,0.0,60,0.04,,---,0.04,VWS V13.01,2013-11-26 15:06:00,
2013-11-26 10:11:00,31.3,19.0,29.09,South,180,0.0,0.0,60,0.04,,---,0.04,VWS V13.01,2013-11-26 15:11:00,
2013-11-26 10:16:00,31.3,20.2,29.09,South,180,0.0,0.0,63,0.04,,---,0.04,VWS V13.01,2013-11-26 15:16:00,
2013-11-26 10:21:00,31.5,21.1,29.09,South,180,0.0,0.0,65,0.04,,---,0.04,VWS V13.01,2013-11-26 15:21:00,
2013-11-26 10:27:00,31.5,21.8,29.09,South,180,0.0,0.0,67,0.04,,---,0.04,VWS V13.01,2013-11-26 15:27:00,
2013-11-26 10:32:00,31.5,22.5,29.09,South,180,0.0,0.0,69,0.04,,---,0.04,VWS V13.01,2013-11-26 15:32:00,
2013-11-26 10:37:00,31.5,22.5,29.09,South,180,0.0,0.0,69,0.04,,---,0.04,VWS V13.01,2013-11-26 15:37:00,
2013-11-26 10:42:00,31.5,22.8,29.09,South,180,0.0,0.0,70,0.04,,---,0.08,VWS V13.01,2013-11-26 15:42:00,
2013-11-26 10:47:00,31.5,23.5,29.09,South,180,0.0,0.0,72,0.08,,---,0.08,VWS V13.01,2013-11-26 15:47:00,
2013-11-26 10:52:00,31.6,24.0,29.09,South,180,0.0,0.0,73,0.08,,---,0.08,VWS V13.01,2013-11-26 15:52:00,
2013-11-26 10:57:00,31.8,24.5,29.09,South,180,0.0,0.0,74,0.08,,---,0.08,VWS V13.01,2013-11-26 15:57:00,
2013-11-26 11:02:00,31.8,24.8,29.09,South,180,0.0,0.0,75,0.04,,---,0.08,VWS V13.01,2013-11-26 16:02:00,
2013-11-26 11:07:00,32.0,25.3,29.09,South,180,0.0,0.0,76,0.04,,---,0.08,VWS V13.01,2013-11-26 16:07:00,
2013-11-26 11:12:00,32.0,25.6,29.09,South,180,0.0,0.0,77,0.04,,---,0.08,VWS V13.01,2013-11-26 16:12:00,
2013-11-26 11:17:00,32.2,26.1,29.09,South,180,0.0,0.0,78,0.04,,---,0.08,VWS V13.01,2013-11-26 16:17:00,
2013-11-26 11:22:00,32.4,26.6,29.06,South,180,0.0,0.0,79,0.04,,---,0.08,VWS V13.01,2013-11-26 16:22:00,
2013-11-26 11:27:00,32.5,26.8,29.06,South,180,0.0,0.0,79,0.08,,---,0.12,VWS V13.01,2013-11-26 16:27:00,
2013-11-26 11:32:00,32.5,27.1,29.06,South,180,0.0,0.0,80,0.08,,---,0.12,VWS V13.01,2013-11-26 16:32:00,
2013-11-26 11:37:00,32.5,27.1,29.06,South,180,0.0,0.0,80,0.08,,---,0.12,VWS V13.01,2013-11-26 16:37:00,
2013-11-26 11:43:00,32.7,27.5,29.06,South,180,0.0,0.0,81,0.08,,---,0.12,VWS V13.01,2013-11-26 16:43:00,
2013-11-26 11:48:00,32.9,28.0,29.06,South,180,0.0,0.0,82,0.08,,---,0.12,VWS V13.01,2013-11-26 16:48:00,
2013-11-26 11:53:00,32.9,28.0,29.06,South,180,0.0,0.0,82,0.08,,---,0.12,VWS V13.01,2013-11-26 16:53:00,
2013-11-26 11:58:00,33.1,28.5,29.06,South,180,0.0,0.0,83,0.08,,---,0.12,VWS V13.01,2013-11-26 16:58:00,
2013-11-26 12:03:00,33.1,28.5,29.06,South,180,0.0,0.0,83,0.04,,---,0.12,VWS V13.01,2013-11-26 17:03:00,
2013-11-26 12:08:00,33.1,28.8,29.06,South,180,0.0,0.0,84,0.04,,---,0.12,VWS V13.01,2013-11-26 17:08:00,
2013-11-26 12:13:00,33.3,29.0,29.06,South,180,0.0,0.0,84,0.04,,---,0.12,VWS V13.01,2013-11-26 17:13:00,
2013-11-26 12:18:00,33.3,29.2,29.06,South,180,0.0,0.0,85,0.04,,---,0.12,VWS V13.01,2013-11-26 17:18:00,
2013-11-26 12:23:00,33.3,29.2,29.06,South,180,0.0,0.0,85,0.04,,---,0.12,VWS V13.01,2013-11-26 17:23:00,
2013-11-26 12:29:00,33.6,29.6,29.06,South,180,0.0,0.0,85,0.04,,---,0.12,VWS V13.01,2013-11-26 17:29:00,
2013-11-26 12:34:00,33.6,29.6,29.03,East,90,0.0,0.0,85,0.08,,---,0.16,VWS V13.01,2013-11-26 17:34:00,
2013-11-26 12:39:00,33.8,29.8,29.03,East,90,0.0,0.0,85,0.08,,---,0.16,VWS V13.01,2013-11-26 17:39:00,
2013-11-26 12:44:00,33.8,29.8,29.03,NE,45,0.0,0.0,85,0.04,,---,0.16,VWS V13.01,2013-11-26 17:44:00,
2013-11-26 12:49:00,33.8,29.8,29.03,NE,45,0.0,0.0,85,0.04,,---,0.16,VWS V13.01,2013-11-26 17:49:00,
2013-11-26 12:54:00,34.2,30.4,29.03,NE,45,0.0,0.0,86,0.04,,---,0.16,VWS V13.01,2013-11-26 17:54:00,
2013-11-26 12:59:00,34.3,30.6,29.03,NE,45,0.0,0.0,86,0.04,,---,0.16,VWS V13.01,2013-11-26 17:59:00,
2013-11-26 13:04:00,34.3,30.6,29.03,NE,45,0.0,0.0,86,0.04,,---,0.16,VWS V13.01,2013-11-26 18:04:00,
2013-11-26 13:09:00,34.3,30.6,29.03,NE,45,0.0,0.0,86,0.04,,---,0.16,VWS V13.01,2013-11-26 18:09:00,
2013-11-26 13:14:00,34.5,30.8,29.03,NE,45,0.0,0.0,86,0.04,,---,0.16,VWS V13.01,2013-11-26 18:14:00,
2013-11-26 13:19:00,34.5,30.8,29.03,NE,45,0.0,0.0,86,0.04,,---,0.16,VWS V13.01,2013-11-26 18:19:00,
2013-11-26 13:24:00,34.7,31.0,29.03,NE,45,0.0,0.0,86,0.04,,---,0.16,VWS V13.01,2013-11-26 18:24:00,
2013-11-26 13:29:00,34.7,31.2,29.03,NE,45,0.0,0.0,87,0.04,,---,0.16,VWS V13.01,2013-11-26 18:29:00,
2013-11-26 13:34:00,34.9,31.4,29.00,NE,45,0.0,0.0,87,0.04,,---,0.16,VWS V13.01,2013-11-26 18:34:00,
2013-11-26 13:39:00,34.9,31.4,29.00,NE,45,0.0,0.0,87,0.04,,---,0.16,VWS V13.01,2013-11-26 18:39:00,
2013-11-26 13:44:00,35.1,31.6,29.00,NE,45,0.0,0.0,87,0.00,,---,0.16,VWS V13.01,2013-11-26 18:44:00,
2013-11-26 13:50:00,35.1,31.6,29.00,NE,45,0.0,0.0,87,0.00,,---,0.16,VWS V13.01,2013-11-26 18:50:00,
2013-11-26 13:55:00,35.1,31.6,29.00,NE,45,0.0,0.0,87,0.00,,---,0.16,VWS V13.01,2013-11-26 18:55:00,
2013-11-26 14:00:00,35.1,31.6,29.00,NE,45,0.0,0.0,87,0.00,,---,0.16,VWS V13.01,2013-11-26 19:00:00,
2013-11-26 14:05:00,35.1,31.6,28.97,NE,45,0.0,0.0,87,0.04,,---,0.20,VWS V13.01,2013-11-26 19:05:00,
2013-11-26 14:10:00,35.1,31.6,28.97,NE,45,0.0,0.0,87,0.04,,---,0.20,VWS V13.01,2013-11-26 19:10:00,
2013-11-26 14:15:00,35.2,31.8,28.97,NE,45,0.0,0.0,87,0.04,,---,0.20,VWS V13.01,2013-11-26 19:15:00,
2013-11-26 14:20:00,35.2,31.8,28.97,NE,45,0.0,0.0,87,0.04,,---,0.20,VWS V13.01,2013-11-26 19:20:00,
2013-11-26 14:25:00,35.2,31.8,28.97,NE,45,0.0,0.0,87,0.04,,---,0.20,VWS V13.01,2013-11-26 19:25:00,
2013-11-26 14:30:00,35.4,32.2,28.97,NE,45,0.0,0.0,88,0.04,,---,0.20,VWS V13.01,2013-11-26 19:30:00,
2013-11-26 14:40:00,35.4,32.2,28.97,NE,45,0.0,0.0,88,0.04,,---,0.20,VWS V13.01,2013-11-26 19:40:00,
2013-11-26 14:45:00,35.6,32.1,28.97,NE,45,0.0,0.0,87,0.04,,---,0.20,VWS V13.01,2013-11-26 19:45:00,
2013-11-26 14:50:00,35.8,32.3,28.97,NE,45,0.0,0.0,87,0.04,,---,0.20,VWS V13.01,2013-11-26 19:50:00,
2013-11-26 14:55:00,35.8,32.3,28.97,NE,45,0.0,0.0,87,0.04,,---,0.20,VWS V13.01,2013-11-26 19:55:00,
2013-11-26 15:00:00,35.8,32.3,28.97,NE,45,0.0,0.0,87,0.04,,---,0.20,VWS V13.01,2013-11-26 20:00:00,
2013-11-26 15:05:00,36.1,32.7,28.97,ESE,112,0.0,0.0,87,0.04,,---,0.20,VWS V13.01,2013-11-26 20:05:00,
2013-11-26 15:11:00,36.1,32.7,28.97,NE,45,0.0,0.0,87,0.04,,---,0.20,VWS V13.01,2013-11-26 20:11:00,
2013-11-26 15:16:00,36.1,32.7,28.97,NE,45,0.0,0.0,87,0.04,,---,0.20,VWS V13.01,2013-11-26 20:16:00,
2013-11-26 15:21:00,36.1,32.7,28.97,NE,45,0.0,0.0,87,0.04,,---,0.20,VWS V13.01,2013-11-26 20:21:00,
2013-11-26 15:26:00,36.1,32.9,28.97,NE,45,0.0,0.0,88,0.04,,---,0.24,VWS V13.01,2013-11-26 20:26:00,
2013-11-26 15:31:00,36.1,32.9,28.97,NE,45,0.0,0.0,88,0.04,,---,0.24,VWS V13.01,2013-11-26 20:31:00,
2013-11-26 15:36:00,36.1,32.9,28.94,NE,45,0.0,0.0,88,0.04,,---,0.24,VWS V13.01,2013-11-26 20:36:00,
2013-11-26 15:41:00,36.1,32.9,28.94,NE,45,0.0,0.0,88,0.04,,---,0.24,VWS V13.01,2013-11-26 20:41:00,
2013-11-26 15:46:00,36.1,32.9,28.94,NE,45,0.0,0.0,88,0.04,,---,0.24,VWS V13.01,2013-11-26 20:46:00,
2013-11-26 15:51:00,36.1,32.9,28.97,NE,45,0.0,0.0,88,0.04,,---,0.24,VWS V13.01,2013-11-26 20:51:00,
2013-11-26 15:56:00,36.1,32.9,28.97,NE,45,0.0,0.0,88,0.04,,---,0.24,VWS V13.01,2013-11-26 20:56:00,
2013-11-26 16:01:00,36.1,32.9,28.97,NE,45,0.0,0.0,88,0.04,,---,0.24,VWS V13.01,2013-11-26 21:01:00,
2013-11-26 16:06:00,36.1,32.9,28.94,NE,45,0.0,0.0,88,0.04,,---,0.24,VWS V13.01,2013-11-26 21:06:00,
2013-11-26 16:11:00,36.3,33.1,28.94,NE,45,0.0,0.0,88,0.04,,---,0.24,VWS V13.01,2013-11-26 21:11:00,
2013-11-26 16:16:00,36.3,33.1,28.94,NE,45,0.0,0.0,88,0.08,,---,0.28,VWS V13.01,2013-11-26 21:16:00,
2013-11-26 16:22:00,36.3,33.1,28.94,NE,45,0.0,0.0,88,0.08,,---,0.28,VWS V13.01,2013-11-26 21:22:00,
2013-11-26 16:27:00,36.3,33.1,28.94,NE,45,0.0,0.0,88,0.13,,---,0.33,VWS V13.01,2013-11-26 21:27:00,
2013-11-26 16:32:00,36.3,33.1,28.94,NE,45,0.0,0.0,88,0.13,,---,0.33,VWS V13.01,2013-11-26 21:32:00,
2013-11-26 16:37:00,36.3,33.1,28.94,NE,45,0.0,0.0,88,0.13,,---,0.33,VWS V13.01,2013-11-26 21:37:00,
2013-11-26 16:42:00,36.3,33.1,28.94,NE,45,0.0,0.0,88,0.09,,---,0.33,VWS V13.01,2013-11-26 21:42:00,
2013-11-26 16:47:00,36.3,33.1,28.94,NE,45,0.0,0.0,88,0.13,,---,0.37,VWS V13.01,2013-11-26 21:47:00,
2013-11-26 16:52:00,36.3,33.1,28.94,NE,45,0.0,0.0,88,0.13,,---,0.37,VWS V13.01,2013-11-26 21:52:00,
2013-11-26 16:57:00,36.3,33.1,28.94,NE,45,0.0,0.0,88,0.17,,---,0.41,VWS V13.01,2013-11-26 21:57:00,
2013-11-26 17:02:00,36.3,33.1,28.94,NE,45,0.0,0.0,88,0.17,,---,0.41,VWS V13.01,2013-11-26 22:02:00,
2013-11-26 17:07:00,36.3,33.1,28.94,NE,45,0.0,0.0,88,0.17,,---,0.41,VWS V13.01,2013-11-26 22:07:00,
2013-11-26 17:12:00,36.3,33.1,28.94,NE,45,0.0,0.0,88,0.21,,---,0.45,VWS V13.01,2013-11-26 22:12:00,
2013-11-26 17:17:00,36.3,33.1,28.94,NE,45,0.0,0.0,88,0.21,,---,0.45,VWS V13.01,2013-11-26 22:17:00,
2013-11-26 17:22:00,36.3,33.1,28.94,NE,45,0.0,0.0,88,0.21,,---,0.49,VWS V13.01,2013-11-26 22:22:00,
2013-11-26 17:28:00,36.3,33.1,28.94,NNE,22,0.0,0.0,88,0.21,,---,0.49,VWS V13.01,2013-11-26 22:28:00,
2013-11-26 17:33:00,36.3,33.1,28.94,NNE,22,0.0,0.0,88,0.21,,---,0.49,VWS V13.01,2013-11-26 22:33:00,
2013-11-26 17:38:00,36.3,33.1,28.94,NNE,22,0.0,0.0,88,0.21,,---,0.49,VWS V13.01,2013-11-26 22:38:00,
2013-11-26 17:43:00,36.3,33.1,28.94,NNE,22,0.0,0.0,88,0.16,,---,0.49,VWS V13.01,2013-11-26 22:43:00,
2013-11-26 17:48:00,36.1,32.9,28.91,NNE,22,0.0,0.0,88,0.21,,---,0.54,VWS V13.01,2013-11-26 22:48:00,
2013-11-26 17:53:00,36.1,32.9,28.91,NNE,22,0.0,0.0,88,0.21,,---,0.54,VWS V13.01,2013-11-26 22:53:00,
2013-11-26 17:58:00,36.1,32.9,28.91,NNE,22,0.0,0.0,88,0.21,,---,0.54,VWS V13.01,2013-11-26 22:58:00,
2013-11-26 18:03:00,36.1,32.9,28.88,NNE,22,0.0,0.0,88,0.13,,---,0.54,VWS V13.01,2013-11-26 23:03:00,
2013-11-26 18:08:00,36.1,32.9,28.88,NE,45,0.0,0.0,88,0.16,,---,0.57,VWS V13.01,2013-11-26 23:08:00,
2013-11-26 18:13:00,36.1,32.9,28.88,NNE,22,0.0,0.0,88,0.16,,---,0.57,VWS V13.01,2013-11-26 23:13:00,
2013-11-26 18:18:00,36.0,32.8,28.88,NNE,22,0.0,0.0,88,0.21,,---,0.62,VWS V13.01,2013-11-26 23:18:00,
2013-11-26 18:23:00,36.1,32.9,28.88,NNE,22,0.0,0.0,88,0.17,,---,0.62,VWS V13.01,2013-11-26 23:23:00,
2013-11-26 18:28:00,36.1,32.9,28.88,NNE,22,0.0,0.0,88,0.17,,---,0.62,VWS V13.01,2013-11-26 23:28:00,
2013-11-26 18:33:00,36.1,32.9,28.88,NE,45,0.0,0.0,88,0.21,,---,0.66,VWS V13.01,2013-11-26 23:33:00,
2013-11-26 18:38:00,36.1,32.9,28.88,NE,45,0.0,0.0,88,0.21,,---,0.66,VWS V13.01,2013-11-26 23:38:00,
2013-11-26 18:43:00,36.1,32.9,28.88,NE,45,0.0,0.0,88,0.17,,---,0.66,VWS V13.01,2013-11-26 23:43:00,
2013-11-26 18:49:00,36.1,32.9,28.85,NE,45,0.0,0.0,88,0.17,,---,0.66,VWS V13.01,2013-11-26 23:49:00,
2013-11-26 18:54:00,36.1,32.9,28.85,NE,45,0.0,0.0,88,0.21,,---,0.70,VWS V13.01,2013-11-26 23:54:00,
2013-11-26 18:59:00,36.1,32.9,28.85,NE,45,0.0,0.0,88,0.21,,---,0.70,VWS V13.01,2013-11-26 23:59:00,
2013-11-26 19:04:00,36.1,32.9,28.82,NE,45,0.0,0.0,88,0.16,,---,0.70,VWS V13.01,2013-11-27 00:04:00,
2013-11-26 19:09:00,36.1,32.9,28.82,NE,45,0.0,0.0,88,0.16,,---,0.70,VWS V13.01,2013-11-27 00:09:00,
2013-11-26 19:14:00,36.1,32.9,28.82,NE,45,0.0,0.0,88,0.20,,---,0.74,VWS V13.01,2013-11-27 00:14:00,
2013-11-26 19:19:00,36.3,33.1,28.82,NE,45,0.0,0.0,88,0.20,,---,0.74,VWS V13.01,2013-11-27 00:19:00,
2013-11-26 19:24:00,36.3,33.1,28.82,NE,45,0.0,0.0,88,0.12,,---,0.74,VWS V13.01,2013-11-27 00:24:00,
2013-11-26 19:29:00,36.3,33.1,28.82,NE,45,0.0,0.0,88,0.12,,---,0.74,VWS V13.01,2013-11-27 00:29:00,
2013-11-26 19:34:00,36.3,33.1,28.79,NE,45,0.0,0.0,88,0.12,,---,0.74,VWS V13.01,2013-11-27 00:34:00,
2013-11-26 19:39:00,36.3,33.1,28.79,NE,45,0.0,0.0,88,0.16,,---,0.78,VWS V13.01,2013-11-27 00:39:00,
2013-11-26 19:44:00,36.5,33.3,28.79,NE,45,0.0,0.0,88,0.12,,---,0.78,VWS V13.01,2013-11-27 00:44:00,
2013-11-26 19:49:00,36.5,33.3,28.79,NE,45,0.0,0.0,88,0.12,,---,0.78,VWS V13.01,2013-11-27 00:49:00,
2013-11-26 19:54:00,36.5,33.3,28.79,NE,45,0.0,0.0,88,0.16,,---,0.82,VWS V13.01,2013-11-27 00:54:00,
2013-11-26 20:00:00,36.5,33.3,28.79,NE,45,0.0,0.0,88,0.16,,---,0.82,VWS V13.01,2013-11-27 01:00:00,
2013-11-26 20:05:00,36.7,33.5,28.79,NE,45,0.0,0.0,88,0.17,,---,0.87,VWS V13.01,2013-11-27 01:05:00,
2013-11-26 20:10:00,36.7,33.5,28.79,NE,45,0.0,0.0,88,0.17,,---,0.87,VWS V13.01,2013-11-27 01:10:00,
2013-11-26 20:16:00,36.7,33.5,28.79,NE,45,0.0,0.0,88,0.21,,---,0.91,VWS V13.01,2013-11-27 01:16:00,
2013-11-26 20:21:00,36.5,33.3,28.79,NE,45,0.0,0.0,88,0.21,,---,0.91,VWS V13.01,2013-11-27 01:21:00,
2013-11-26 20:26:00,36.5,33.3,28.79,NE,45,0.0,0.0,88,0.17,,---,0.91,VWS V13.01,2013-11-27 01:26:00,
2013-11-26 20:31:00,36.5,33.3,28.79,NE,45,0.0,0.0,88,0.21,,---,0.95,VWS V13.01,2013-11-27 01:31:00,
2013-11-26 20:36:00,36.5,33.3,28.79,NE,45,0.0,0.0,88,0.25,,---,0.99,VWS V13.01,2013-11-27 01:36:00,
2013-11-26 20:42:00,36.5,33.3,28.79,NE,45,0.0,0.0,88,0.21,,---,0.99,VWS V13.01,2013-11-27 01:42:00,
2013-11-26 20:47:00,36.5,33.3,28.79,NE,45,0.0,0.0,88,0.25,,---,1.03,VWS V13.01,2013-11-27 01:47:00,
2013-11-26 20:52:00,36.5,33.3,28.79,NE,45,0.0,0.0,88,0.25,,---,1.03,VWS V13.01,2013-11-27 01:52:00,
2013-11-26 20:57:00,36.5,33.3,28.79,NE,45,0.0,0.0,88,0.29,,---,1.07,VWS V13.01,2013-11-27 01:57:00,
2013-11-26 21:03:00,36.5,33.3,28.76,NE,45,0.0,0.0,88,0.25,,---,1.07,VWS V13.01,2013-11-27 02:03:00,
2013-11-26 21:08:00,36.5,33.3,28.76,NE,45,0.0,0.0,88,0.29,,---,1.11,VWS V13.01,2013-11-27 02:08:00,
2013-11-26 21:13:00,36.5,33.3,28.76,NE,45,0.0,0.0,88,0.29,,---,1.11,VWS V13.01,2013-11-27 02:13:00,
2013-11-26 21:18:00,36.5,33.3,28.73,NE,45,0.0,0.0,88,0.34,,---,1.16,VWS V13.01,2013-11-27 02:18:00,
2013-11-26 21:23:00,36.5,33.3,28.73,NE,45,0.0,0.0,88,0.25,,---,1.16,VWS V13.01,2013-11-27 02:23:00,
2013-11-26 21:29:00,36.5,33.3,28.73,NE,45,0.0,0.0,88,0.25,,---,1.16,VWS V13.01,2013-11-27 02:29:00,
2013-11-26 21:34:00,36.5,33.3,28.79,NE,45,0.0,0.0,88,0.29,,---,1.20,VWS V13.01,2013-11-27 02:34:00,
2013-11-26 21:39:00,36.5,33.3,28.79,NE,45,0.0,0.0,88,0.33,,---,1.24,VWS V13.01,2013-11-27 02:39:00,
2013-11-26 21:45:00,36.5,33.3,28.79,NE,45,0.0,0.0,88,0.25,,---,1.24,VWS V13.01,2013-11-27 02:45:00,
2013-11-26 21:50:00,36.5,33.3,28.73,NE,45,0.0,0.0,88,0.25,,---,1.24,VWS V13.01,2013-11-27 02:50:00,
2013-11-26 21:55:00,36.5,33.3,28.73,NE,45,0.0,0.0,88,0.25,,---,1.24,VWS V13.01,2013-11-27 02:55:00,
2013-11-26 22:00:00,36.3,33.1,28.73,NE,45,0.0,0.0,88,0.29,,---,1.28,VWS V13.01,2013-11-27 03:00:00,
2013-11-26 22:05:00,36.5,33.3,28.70,NE,45,0.0,0.0,88,0.21,,---,1.28,VWS V13.01,2013-11-27 03:05:00,
2013-11-26 22:10:00,36.5,33.3,28.70,NE,45,0.0,0.0,88,0.21,,---,1.28,VWS V13.01,2013-11-27 03:10:00,
2013-11-26 22:15:00,36.5,33.3,28.70,NE,45,0.0,0.0,88,0.21,,---,1.28,VWS V13.01,2013-11-27 03:15:00,
2013-11-26 22:20:00,36.5,33.3,28.67,NE,45,0.0,0.0,88,0.21,,---,1.28,VWS V13.01,2013-11-27 03:20:00,
2013-11-26 22:25:00,36.5,33.3,28.67,NE,45,0.0,0.0,88,0.16,,---,1.32,VWS V13.01,2013-11-27 03:25:00,
2013-11-26 22:30:00,36.7,33.5,28.67,NE,45,0.0,0.0,88,0.16,,---,1.32,VWS V13.01,2013-11-27 03:30:00,
2013-11-26 22:36:00,36.7,33.5,28.67,NE,45,0.0,0.0,88,0.16,,---,1.32,VWS V13.01,2013-11-27 03:36:00,
2013-11-26 22:41:00,36.9,33.7,28.67,NE,45,0.0,0.0,88,0.16,,---,1.32,VWS V13.01,2013-11-27 03:41:00,
2013-11-26 22:46:00,36.9,33.7,28.67,NE,45,0.0,0.0,88,0.08,,---,1.32,VWS V13.01,2013-11-27 03:46:00,
2013-11-26 22:51:00,36.9,33.7,28.64,NE,45,0.0,0.0,88,0.08,,---,1.32,VWS V13.01,2013-11-27 03:51:00,
2013-11-26 22:56:00,37.0,33.8,28.64,NE,45,0.0,0.0,88,0.12,,---,1.36,VWS V13.01,2013-11-27 03:56:00,
2013-11-26 23:01:00,37.0,33.8,28.64,NE,45,0.0,0.0,88,0.12,,---,1.36,VWS V13.01,2013-11-27 04:01:00,
2013-11-26 23:06:00,37.2,34.0,28.64,NE,45,0.0,0.0,88,0.08,,---,1.36,VWS V13.01,2013-11-27 04:06:00,
2013-11-26 23:11:00,37.2,34.0,28.64,NE,45,0.0,0.0,88,0.08,,---,1.36,VWS V13.01,2013-11-27 04:11:00,
2013-11-26 23:16:00,37.2,34.0,28.64,NE,45,0.0,0.0,88,0.13,,---,1.41,VWS V13.01,2013-11-27 04:16:00,
2013-11-26 23:21:00,37.2,34.0,28.61,NE,45,0.0,0.0,88,0.13,,---,1.41,VWS V13.01,2013-11-27 04:21:00,
2013-11-26 23:26:00,37.2,34.0,28.61,NE,45,0.0,0.0,88,0.13,,---,1.41,VWS V13.01,2013-11-27 04:26:00,
2013-11-26 23:31:00,37.2,34.0,28.61,NE,45,0.0,0.0,88,0.13,,---,1.41,VWS V13.01,2013-11-27 04:31:00,
2013-11-26 23:36:00,37.4,34.2,28.61,NE,45,0.0,0.0,88,0.13,,---,1.41,VWS V13.01,2013-11-27 04:36:00,
2013-11-26 23:41:00,37.6,34.3,28.61,NE,45,0.0,0.0,88,0.09,,---,1.41,VWS V13.01,2013-11-27 04:41:00,
2013-11-26 23:47:00,37.6,34.3,28.61,NE,45,0.0,0.0,88,0.09,,---,1.41,VWS V13.01,2013-11-27 04:47:00,
2013-11-26 23:52:00,37.6,34.3,28.61,NE,45,0.0,0.0,88,0.09,,---,1.41,VWS V13.01,2013-11-27 04:52:00,
2013-11-26 23:57:00,37.6,34.3,28.61,NE,45,0.0,0.0,88,0.09,,---,1.41,VWS V13.01,2013-11-27 04:57:00,